{"data":{"norad_id":68436,"intl_designator":"2026-067W","name":"HAWK-14B","alt_names":[],"object_type":"PAYLOAD","status":"ACTIVE","operator":null,"country":"US","launch_date":"2026-03-30","launch_site_code":"AFWTR","launch_vehicle":null,"mission":null,"orbit_class":"UNKNOWN","rcs_meters":null,"size_class":null,"mass_kg":null,"dimensions":null,"purposes":[],"wikipedia_slug":null,"has_3d_model":false,"image_url":null,"decayed_at":null,"tle_current":{"epoch":"2026-05-24T19:35:19.979808Z","epoch_age_seconds":86937,"freshness":"FRESH","line1":"1 68436U 26067W   26144.81620347  .00003801  00000+0  19027-3 0  9999","line2":"2 68436  97.4530 103.6073 0004285 110.8819 249.2874 15.17995609  8392","mean_motion":15.17995609,"eccentricity":0.0004285,"inclination_deg":97.453,"raan_deg":103.6073,"arg_perigee_deg":110.8819,"mean_anomaly_deg":249.2874,"bstar":0.00019027,"rev_number":839,"period_min":94.861934478758,"perigee_km":508.9467259771,"apogee_km":514.85148692032,"semimajor_km":6890.0361064487,"source":"CELESTRAK","updated_at":"2026-05-25T13:38:07.816243Z"}}}